Terminal Aerodrome Forecast
Issued by NWS

Home | Current Version | Previous Version | Text Only | Print | Product List | Glossary On
Versions: 1 2 3 4 5 6 7 8 9 10 11 12 13 14 15 16 17
000
FTUS44 KSJT 190100 AAA
TAFJCT
TAF AMD
KJCT 190159Z 1902/1924 04010G18KT P6SM VCSH BKN025
     FM190600 12008KT P6SM BKN050 BKN200
      TEMPO 1911/1915 BKN020
     FM191500 17010KT P6SM SCT070=

USA.gov is the U.S. government's official web portal to all federal, state and local government web resources and services.